Year,Month,Day,Hour,Minute,Value (Times are PST for temperature in C)
2020,08,18,08,11,20.20
2020,08,18,08,12,20.20
2020,08,18,08,13,20.20
2020,08,18,08,14,20.20
2020,08,18,08,15,20.20
2020,08,18,08,16,20.20
2020,08,18,08,17,20.20
2020,08,18,08,18,20.20
2020,08,18,08,19,20.30
2020,08,18,08,20,20.30
2020,08,18,08,21,20.40
2020,08,18,08,22,20.40
2020,08,18,08,23,20.50
2020,08,18,08,24,20.50
2020,08,18,08,25,20.60
2020,08,18,08,26,20.60
2020,08,18,08,27,20.60
2020,08,18,08,28,20.60
2020,08,18,08,29,20.70
2020,08,18,08,30,20.70
2020,08,18,08,31,20.80
2020,08,18,08,32,20.80
2020,08,18,08,33,20.90
2020,08,18,08,34,20.90
2020,08,18,08,35,20.90
2020,08,18,08,36,21.00
2020,08,18,08,37,21.00
2020,08,18,08,38,21.00
2020,08,18,08,39,21.10
2020,08,18,08,40,21.10
2020,08,18,08,41,21.20
2020,08,18,08,42,21.20
2020,08,18,08,43,21.20
2020,08,18,08,44,21.20
2020,08,18,08,45,21.20
2020,08,18,08,46,21.20
2020,08,18,08,47,21.20
2020,08,18,08,48,21.10
2020,08,18,08,49,21.10
2020,08,18,08,50,21.00
2020,08,18,08,51,21.00
2020,08,18,08,52,20.90
2020,08,18,08,53,20.80
2020,08,18,08,54,20.80
2020,08,18,08,55,20.80
2020,08,18,08,56,20.90
2020,08,18,08,57,20.80
2020,08,18,08,58,20.80
2020,08,18,08,59,20.80
2020,08,18,09,00,20.70
2020,08,18,09,01,20.70
2020,08,18,09,02,20.60
2020,08,18,09,03,20.60
2020,08,18,09,04,20.60
2020,08,18,09,05,20.60
2020,08,18,09,06,20.60
2020,08,18,09,07,20.70
2020,08,18,09,08,20.70
2020,08,18,09,09,20.70
2020,08,18,09,10,20.80
2020,08,18,09,11,20.80
2020,08,18,09,12,20.80
2020,08,18,09,13,20.80
2020,08,18,09,14,20.80
2020,08,18,09,15,20.80
2020,08,18,09,16,20.80
2020,08,18,09,17,20.90
2020,08,18,09,18,20.90
2020,08,18,09,19,20.80
2020,08,18,09,20,20.90
2020,08,18,09,21,20.90
2020,08,18,09,22,20.90
2020,08,18,09,23,20.90
2020,08,18,09,24,20.90
2020,08,18,09,25,20.80
2020,08,18,09,26,20.80
2020,08,18,09,27,20.80
2020,08,18,09,28,20.70
2020,08,18,09,29,20.70
2020,08,18,09,30,20.70
2020,08,18,09,31,20.70
2020,08,18,09,32,20.70
2020,08,18,09,33,20.70
2020,08,18,09,34,20.70
2020,08,18,09,35,20.70
2020,08,18,09,36,20.70
2020,08,18,09,37,20.70
2020,08,18,09,38,20.70
2020,08,18,09,39,20.70
2020,08,18,09,40,20.70
2020,08,18,09,41,20.70
2020,08,18,09,42,20.70
2020,08,18,09,43,20.70
2020,08,18,09,44,20.70
2020,08,18,09,45,20.80
2020,08,18,09,46,20.70
2020,08,18,09,47,20.80
2020,08,18,09,48,20.80
2020,08,18,09,49,20.70
2020,08,18,09,50,20.80
2020,08,18,09,51,20.80
2020,08,18,09,52,20.90
2020,08,18,09,53,20.90
2020,08,18,09,54,20.90
2020,08,18,09,55,20.90
2020,08,18,09,56,20.90
2020,08,18,09,57,20.90
2020,08,18,09,58,20.90
2020,08,18,09,59,21.00
2020,08,18,10,00,20.90
2020,08,18,10,01,20.90
2020,08,18,10,02,20.90
2020,08,18,10,03,21.00
2020,08,18,10,04,21.00
2020,08,18,10,05,21.00
2020,08,18,10,06,21.00
2020,08,18,10,07,21.00
2020,08,18,10,08,21.10
2020,08,18,10,09,21.00
2020,08,18,10,10,21.00
2020,08,18,10,11,21.00
2020,08,18,10,12,21.00
2020,08,18,10,13,21.00
2020,08,18,10,14,21.00
2020,08,18,10,15,21.10
2020,08,18,10,16,21.30
2020,08,18,10,17,21.30
2020,08,18,10,18,21.40
2020,08,18,10,19,21.50
2020,08,18,10,20,21.60
2020,08,18,10,21,21.60
2020,08,18,10,22,21.60
2020,08,18,10,23,21.60
2020,08,18,10,24,21.70
2020,08,18,10,25,21.80
2020,08,18,10,26,21.80
2020,08,18,10,27,21.90
2020,08,18,10,28,21.90
2020,08,18,10,29,21.90
2020,08,18,10,30,21.90
2020,08,18,10,31,21.90
2020,08,18,10,32,21.90
2020,08,18,10,33,22.00
2020,08,18,10,34,22.00
2020,08,18,10,35,22.00
2020,08,18,10,36,22.00
2020,08,18,10,37,22.00
2020,08,18,10,38,22.00
2020,08,18,10,39,21.90
2020,08,18,10,40,21.90
2020,08,18,10,41,21.90
2020,08,18,10,42,21.90
2020,08,18,10,43,21.90
2020,08,18,10,44,21.90
2020,08,18,10,45,21.90
2020,08,18,10,46,21.90
2020,08,18,10,47,21.90
2020,08,18,10,48,21.90
2020,08,18,10,49,22.00
2020,08,18,10,50,22.00
2020,08,18,10,51,22.10
2020,08,18,10,52,22.10
2020,08,18,10,53,22.20
2020,08,18,10,54,22.20
2020,08,18,10,55,22.30
2020,08,18,10,56,22.30
2020,08,18,10,57,22.40
2020,08,18,10,58,22.50
2020,08,18,10,59,22.60
2020,08,18,11,00,22.60
2020,08,18,11,01,22.70
2020,08,18,11,02,22.70
2020,08,18,11,03,22.70
2020,08,18,11,04,22.70
2020,08,18,11,05,22.70
2020,08,18,11,06,22.60
2020,08,18,11,07,22.50
2020,08,18,11,08,22.50
2020,08,18,11,09,22.40
2020,08,18,11,10,22.40
2020,08,18,11,11,22.40
2020,08,18,11,12,22.40
2020,08,18,11,13,22.50
2020,08,18,11,14,22.50
2020,08,18,11,15,22.50
2020,08,18,11,16,22.40
2020,08,18,11,17,22.40
2020,08,18,11,18,22.40
2020,08,18,11,19,22.30
2020,08,18,11,20,22.30
2020,08,18,11,21,22.40
2020,08,18,11,22,22.50
2020,08,18,11,23,22.50
2020,08,18,11,24,22.60
2020,08,18,11,25,22.60
2020,08,18,11,26,22.70
2020,08,18,11,27,22.60
2020,08,18,11,28,22.40
2020,08,18,11,29,22.40
2020,08,18,11,30,22.40
2020,08,18,11,31,22.40
2020,08,18,11,32,22.40
2020,08,18,11,33,22.40
2020,08,18,11,34,22.40
2020,08,18,11,35,22.40
2020,08,18,11,36,22.50
2020,08,18,11,37,22.50
2020,08,18,11,38,22.60
2020,08,18,11,39,22.60
2020,08,18,11,40,22.60
2020,08,18,11,41,22.60
2020,08,18,11,42,22.60
2020,08,18,11,43,22.60
2020,08,18,11,44,22.60
2020,08,18,11,45,22.60
2020,08,18,11,46,22.60
2020,08,18,11,47,22.60
2020,08,18,11,48,22.70
2020,08,18,11,49,22.70
2020,08,18,11,50,22.70
2020,08,18,11,51,22.70
2020,08,18,11,52,22.70
2020,08,18,11,53,22.80
2020,08,18,11,54,22.90
2020,08,18,11,55,22.90
2020,08,18,11,56,23.00
2020,08,18,11,57,23.10
2020,08,18,11,58,23.10
2020,08,18,11,59,23.10
2020,08,18,12,00,23.10
2020,08,18,12,01,22.90
2020,08,18,12,02,22.90
2020,08,18,12,03,22.90
2020,08,18,12,04,22.90
2020,08,18,12,05,23.10
2020,08,18,12,06,23.10
2020,08,18,12,07,23.10
2020,08,18,12,08,23.20
2020,08,18,12,09,23.20
2020,08,18,12,10,23.10
2020,08,18,12,11,23.10
2020,08,18,12,12,23.10
2020,08,18,12,13,23.10
2020,08,18,12,14,23.10
2020,08,18,12,15,23.20
2020,08,18,12,16,23.20
2020,08,18,12,17,23.20
2020,08,18,12,18,23.20
2020,08,18,12,19,23.20
2020,08,18,12,20,23.20
2020,08,18,12,21,23.30
2020,08,18,12,22,23.30
2020,08,18,12,23,23.30
2020,08,18,12,24,23.40
2020,08,18,12,25,23.30
2020,08,18,12,26,23.30
2020,08,18,12,27,23.30
2020,08,18,12,28,23.30
2020,08,18,12,29,23.30
2020,08,18,12,30,23.30
2020,08,18,12,31,23.30
2020,08,18,12,32,23.30
2020,08,18,12,33,23.30
2020,08,18,12,34,23.40
2020,08,18,12,35,23.50
2020,08,18,12,36,23.70
2020,08,18,12,37,23.70
2020,08,18,12,38,23.60
2020,08,18,12,39,23.40
2020,08,18,12,40,23.30
2020,08,18,12,41,23.30
2020,08,18,12,42,23.30
2020,08,18,12,43,23.40
2020,08,18,12,44,23.50
2020,08,18,12,45,23.70
2020,08,18,12,46,23.80
2020,08,18,12,47,23.90
2020,08,18,12,48,24.00
2020,08,18,12,49,24.10
2020,08,18,12,50,24.10
2020,08,18,12,51,24.10
2020,08,18,12,52,24.10
2020,08,18,12,53,24.10
2020,08,18,12,54,24.00
2020,08,18,12,55,23.80
2020,08,18,12,56,23.70
2020,08,18,12,57,23.80
2020,08,18,12,58,23.80
2020,08,18,12,59,23.90
2020,08,18,13,00,24.00
2020,08,18,13,01,24.10
2020,08,18,13,02,24.10
2020,08,18,13,03,24.10
2020,08,18,13,04,24.10
2020,08,18,13,05,24.10
2020,08,18,13,06,24.10
2020,08,18,13,07,23.90
2020,08,18,13,08,23.90
2020,08,18,13,09,23.90
2020,08,18,13,10,24.00
2020,08,18,13,11,24.10
2020,08,18,13,12,23.90
2020,08,18,13,13,23.90
2020,08,18,13,14,23.80
2020,08,18,13,15,23.80
2020,08,18,13,16,23.80
2020,08,18,13,17,23.80
2020,08,18,13,18,23.90
2020,08,18,13,19,23.90
2020,08,18,13,20,24.00
2020,08,18,13,21,24.00
2020,08,18,13,22,23.70
2020,08,18,13,23,23.60
2020,08,18,13,24,23.40
2020,08,18,13,25,23.20
2020,08,18,13,26,23.00
2020,08,18,13,27,22.90
2020,08,18,13,28,22.80
2020,08,18,13,29,22.70
2020,08,18,13,30,22.50
2020,08,18,13,31,22.30
2020,08,18,13,32,22.20
2020,08,18,13,33,22.20
2020,08,18,13,34,22.10
2020,08,18,13,35,22.10
2020,08,18,13,36,22.00
2020,08,18,13,37,21.80
2020,08,18,13,38,21.80
2020,08,18,13,39,21.80
2020,08,18,13,40,21.80
2020,08,18,13,41,21.90
2020,08,18,13,42,22.10
2020,08,18,13,43,22.20
2020,08,18,13,44,22.40
2020,08,18,13,45,22.50
2020,08,18,13,46,22.80
2020,08,18,13,47,23.00
2020,08,18,13,48,23.30
2020,08,18,13,49,23.40
2020,08,18,13,50,23.50
2020,08,18,13,51,23.60
2020,08,18,13,52,23.60
2020,08,18,13,53,23.60
2020,08,18,13,54,23.60
2020,08,18,13,55,23.40
2020,08,18,13,56,23.40
2020,08,18,13,57,23.60
2020,08,18,13,58,23.60
2020,08,18,13,59,23.40
2020,08,18,14,00,23.40
2020,08,18,14,01,23.40
2020,08,18,14,02,23.30
2020,08,18,14,03,23.30
2020,08,18,14,04,23.20
2020,08,18,14,05,23.20
2020,08,18,14,06,23.10
2020,08,18,14,07,22.90
2020,08,18,14,08,22.70
2020,08,18,14,09,22.50
2020,08,18,14,10,22.40
2020,08,18,14,11,22.30
2020,08,18,14,12,22.30
2020,08,18,14,13,22.40
2020,08,18,14,14,22.40
2020,08,18,14,15,22.50
2020,08,18,14,16,22.60
2020,08,18,14,17,22.60
2020,08,18,14,18,22.60
2020,08,18,14,19,22.60
2020,08,18,14,20,22.70
2020,08,18,14,21,22.60
2020,08,18,14,22,22.60
2020,08,18,14,23,22.60
2020,08,18,14,24,22.50
2020,08,18,14,25,22.50
2020,08,18,14,26,22.40
2020,08,18,14,27,22.40
2020,08,18,14,28,22.40
2020,08,18,14,29,22.30
2020,08,18,14,30,22.20
2020,08,18,14,31,22.10
2020,08,18,14,32,22.10
2020,08,18,14,33,22.10
2020,08,18,14,34,22.00
2020,08,18,14,35,22.00
2020,08,18,14,36,22.00
2020,08,18,14,37,22.10
2020,08,18,14,38,22.10
2020,08,18,14,39,22.10
2020,08,18,14,40,22.10
2020,08,18,14,41,22.20
2020,08,18,14,42,22.20
2020,08,18,14,43,22.20
2020,08,18,14,44,22.20
2020,08,18,14,45,22.10
2020,08,18,14,46,22.10
2020,08,18,14,47,22.20
2020,08,18,14,48,22.30
2020,08,18,14,49,22.40
2020,08,18,14,50,22.50
2020,08,18,14,51,22.60
2020,08,18,14,52,22.50
2020,08,18,14,53,22.50
2020,08,18,14,54,22.40
2020,08,18,14,55,22.50
2020,08,18,14,56,22.50
2020,08,18,14,57,22.60
2020,08,18,14,58,22.70
2020,08,18,14,59,22.80
2020,08,18,15,00,22.80
2020,08,18,15,01,22.70
2020,08,18,15,02,22.70
2020,08,18,15,03,22.70
2020,08,18,15,04,22.70
2020,08,18,15,05,22.60
2020,08,18,15,06,22.60
2020,08,18,15,07,22.50
2020,08,18,15,08,22.30
2020,08,18,15,09,22.30
2020,08,18,15,10,22.30
2020,08,18,15,11,22.40
2020,08,18,15,12,22.50
2020,08,18,15,13,22.50
2020,08,18,15,14,22.60
2020,08,18,15,15,22.70
2020,08,18,15,16,22.70
2020,08,18,15,17,22.90
2020,08,18,15,18,23.00
2020,08,18,15,19,23.10
2020,08,18,15,20,23.20
2020,08,18,15,21,23.20
2020,08,18,15,22,23.10
2020,08,18,15,23,23.00
2020,08,18,15,24,22.90
2020,08,18,15,25,22.90
2020,08,18,15,26,22.80
2020,08,18,15,27,22.90
2020,08,18,15,28,22.90
2020,08,18,15,29,22.90
2020,08,18,15,30,22.90
2020,08,18,15,31,22.80
2020,08,18,15,32,22.70
2020,08,18,15,33,22.70
2020,08,18,15,34,22.70
2020,08,18,15,35,22.70
2020,08,18,15,36,22.80
2020,08,18,15,37,22.80
2020,08,18,15,38,22.80
2020,08,18,15,39,22.80
2020,08,18,15,40,22.80
2020,08,18,15,41,22.80
2020,08,18,15,42,22.70
2020,08,18,15,43,22.70
2020,08,18,15,44,22.60
2020,08,18,15,45,22.60
2020,08,18,15,46,22.50
2020,08,18,15,47,22.30
2020,08,18,15,48,22.30
2020,08,18,15,49,22.20
2020,08,18,15,50,22.20
2020,08,18,15,51,22.30
2020,08,18,15,52,22.30
2020,08,18,15,53,22.30
2020,08,18,15,54,22.40
2020,08,18,15,55,22.40
2020,08,18,15,56,22.40
2020,08,18,15,57,22.40
2020,08,18,15,58,22.30
2020,08,18,15,59,22.30
2020,08,18,16,00,22.20
2020,08,18,16,01,22.10
2020,08,18,16,02,22.00
2020,08,18,16,03,21.90
2020,08,18,16,04,21.90
2020,08,18,16,05,21.90
2020,08,18,16,06,21.90
2020,08,18,16,07,21.90
2020,08,18,16,08,21.80
2020,08,18,16,09,21.80
2020,08,18,16,10,21.90
2020,08,18,16,11,22.00
2020,08,18,16,12,22.00
2020,08,18,16,13,22.10
2020,08,18,16,14,22.10
2020,08,18,16,15,22.20
2020,08,18,16,16,22.20
2020,08,18,16,17,22.30
2020,08,18,16,18,22.20
2020,08,18,16,19,22.10
2020,08,18,16,20,22.10
2020,08,18,16,21,22.10
2020,08,18,16,22,22.20
2020,08,18,16,23,22.10
2020,08,18,16,24,22.10
2020,08,18,16,25,22.10
2020,08,18,16,26,22.10
2020,08,18,16,27,22.10
2020,08,18,16,28,22.00
2020,08,18,16,29,21.90
2020,08,18,16,30,21.90
2020,08,18,16,31,22.00
2020,08,18,16,32,22.00
2020,08,18,16,33,21.90
2020,08,18,16,34,21.90
2020,08,18,16,35,21.90
2020,08,18,16,36,21.80
2020,08,18,16,37,21.70
2020,08,18,16,38,21.60
2020,08,18,16,39,21.50
2020,08,18,16,40,21.40
2020,08,18,16,41,21.20
2020,08,18,16,42,21.10
2020,08,18,16,43,21.00
2020,08,18,16,44,20.90
2020,08,18,16,45,20.90
2020,08,18,16,46,20.80
2020,08,18,16,47,20.80
2020,08,18,16,48,20.70
2020,08,18,16,49,20.70
2020,08,18,16,50,20.60
2020,08,18,16,51,20.50
2020,08,18,16,52,20.50
2020,08,18,16,53,20.50
2020,08,18,16,54,20.50
2020,08,18,16,55,20.60
2020,08,18,16,56,20.60
2020,08,18,16,57,20.70
2020,08,18,16,58,20.70
2020,08,18,16,59,20.70
2020,08,18,17,00,20.80
2020,08,18,17,01,20.80
2020,08,18,17,02,20.90
2020,08,18,17,03,21.00
2020,08,18,17,04,21.10
2020,08,18,17,05,21.20
2020,08,18,17,06,21.20
2020,08,18,17,07,21.10
2020,08,18,17,08,21.10
2020,08,18,17,09,21.00
2020,08,18,17,10,20.90
2020,08,18,17,11,20.80
2020,08,18,17,12,20.80
2020,08,18,17,13,20.70
2020,08,18,17,14,20.60
2020,08,18,17,15,20.60
2020,08,18,17,16,20.60
2020,08,18,17,17,20.60
2020,08,18,17,18,20.60
2020,08,18,17,19,20.60
2020,08,18,17,20,20.50
2020,08,18,17,21,20.30
2020,08,18,17,22,20.20
2020,08,18,17,23,20.10
2020,08,18,17,24,20.00
2020,08,18,17,25,19.90
2020,08,18,17,26,19.80
2020,08,18,17,27,19.80
2020,08,18,17,28,19.80
2020,08,18,17,29,19.80
2020,08,18,17,30,19.80
2020,08,18,17,31,19.80
2020,08,18,17,32,19.80
2020,08,18,17,33,19.70
2020,08,18,17,34,19.70
2020,08,18,17,35,19.60
2020,08,18,17,36,19.60
2020,08,18,17,37,19.60
2020,08,18,17,38,19.60
2020,08,18,17,39,19.60
2020,08,18,17,40,19.50
2020,08,18,17,41,19.40
2020,08,18,17,42,19.30
2020,08,18,17,43,19.30
2020,08,18,17,44,19.20
2020,08,18,17,45,19.20
2020,08,18,17,46,19.30
2020,08,18,17,47,19.30
2020,08,18,17,48,19.40
2020,08,18,17,49,19.40
2020,08,18,17,50,19.50
2020,08,18,17,51,19.60
2020,08,18,17,52,19.70
2020,08,18,17,53,19.80
2020,08,18,17,54,19.80
2020,08,18,17,55,19.90
2020,08,18,17,56,20.00
2020,08,18,17,57,20.10
2020,08,18,17,58,20.20
2020,08,18,17,59,20.20
2020,08,18,18,00,20.30
2020,08,18,18,01,20.40
2020,08,18,18,02,20.50
2020,08,18,18,03,20.60
2020,08,18,18,04,20.60
2020,08,18,18,05,20.60
2020,08,18,18,06,20.60
2020,08,18,18,07,20.60
2020,08,18,18,08,20.60
2020,08,18,18,09,20.60
2020,08,18,18,10,20.60
2020,08,18,18,11,20.60
2020,08,18,18,12,20.50
2020,08,18,18,13,20.50
2020,08,18,18,14,20.50
2020,08,18,18,15,20.50
2020,08,18,18,16,20.60
2020,08,18,18,17,20.50
2020,08,18,18,18,20.50
2020,08,18,18,19,20.50
2020,08,18,18,20,20.40
2020,08,18,18,21,20.40
2020,08,18,18,22,20.30
2020,08,18,18,23,20.20
2020,08,18,18,24,20.20
2020,08,18,18,25,20.20
2020,08,18,18,26,20.20
2020,08,18,18,27,20.20
2020,08,18,18,28,20.10
2020,08,18,18,29,20.10
2020,08,18,18,30,20.10
2020,08,18,18,31,20.10
2020,08,18,18,32,20.10
2020,08,18,18,33,20.10
2020,08,18,18,34,20.10
2020,08,18,18,35,20.10
2020,08,18,18,36,20.10
2020,08,18,18,37,20.10
2020,08,18,18,38,20.10
2020,08,18,18,39,20.10
2020,08,18,18,40,20.10
